Regional Weather Roundup
Issued by NWS Grand Forks, ND

Home | Current Version | Previous Version | Text Only | Print | Product List | Glossary Off
Versions: 1 2 3 4 5 6 7 8 9 10 11 12 13 14 15 16 17 18 19 20 21 22 23 24 25 26 27 28 29 30 31 32 33 34 35 36 37 38 39 40 41 42 43 44 45 46 47 48 49 50

000
ASUS43 KFGF 112031
RWRFGF
PRAIRIE TO PINES  WEATHER ROUNDUP
NATIONAL WEATHER SERVICE EASTERN NORTH DAKOTA/GRAND FORKS ND
300 PM CDT FRI JUL 11 2014

 **SATELLITE DATA USED TO AUGMENT SKY COVER AT AUTOMATED STATIONS**
 *****  WEATHER ACROSS EASTERN NORTH DAKOTA  *****

CITY           SKY/WX    TMP DP  RH WIND       PRES   REMARKS
GRAND FORKS    MOSUNNY   84  56  38 NW13G20   29.91R
GRAND FRKS AFB SUNNY     84  53  33 N13       29.93R
GRAND FRKS NWS   N/A     72 N/A N/A NW10        N/A
DEVILS LAKE    SUNNY     81  54  39 W16G23    29.97R
FARGO          MOSUNNY   87  67  51 NW8       29.91R HX  90
WAHPETON ARPT  PTCLDY    86  64  48 N7        29.92S
$$

 ***** WEATHER ACROSS CENTRAL AND WESTERN NORTH DAKOTA  *****

CITY           SKY/WX    TMP DP  RH WIND       PRES   REMARKS
BISMARCK       PTSUNNY   82  52  35 N9        30.03F
MINOT          SUNNY     75  54  47 NW16      30.04R
JAMESTOWN      SUNNY     83  57  41 N8        29.99R
MINOT AFB      SUNNY     75  54  48 NW17      30.03R
GARRISON         N/A     79  57  46 N10       30.05R
WILLISTON      SUNNY     80  52  37 NW10      30.09R
DICKINSON      MOSUNNY   80  55  42 NE9       30.06F
HETTINGER      MOSUNNY   82  59  45 NE14      30.07F
$$

 *****  OTHER AIRPORT OBSERVATIONS IN OUR AREA  *****

CITY           SKY/WX    TMP DP  RH WIND       PRES   REMARKS
WALHALLA       FAIR      79  54  41 W16G23      N/A
GRAFTON AIRPOR FAIR      82  55  39 W18G25    29.91R
VALLEY CITY AR FAIR      82  61  47 N7        29.97S
CANDO          FAIR      77  55  47 NW18G26   29.98S
CAVALIER APRT  FAIR      81  55  41 NW18G26   29.91R
GWINNER          N/A     88  66  48 N9        29.96R HX  90
SHEYENNE NWR     N/A     88  69  53 N7        29.95  HX  92
ROLLA            N/A     73  50  43 NW16G22   30.00R
 ***** THE ABOVE OBSERVATIONS ARE NON NWS ARE NOT QUALITY
       CONTROLLED AND MAY MIS-REPORT RAIN FOR SNOW...
$$

  *****  WEATHER ACROSS NORTHERN MINNESOTA  *****

CITY           SKY/WX    TMP DP  RH WIND       PRES   REMARKS
FLAG ISLAND    MOSUNNY   79  50  36 W18G26    29.83S HAZE
WARROAD        SUNNY     82  55  39 W10G21    29.87R
ROSEAU         SUNNY     82  57  42 NW16G23   29.88R
HALLOCK        SUNNY     82  52  34 NW17G24   29.89R
THF RVR FALLS  SUNNY     82  55  39 NW15      29.92R
BAUDETTE       SUNNY     82  63  52 NW7G17    29.87R
WASKISH        SUNNY     81  70  69 SW3       29.88R
CROOKSTON      SUNNY     82  57  42 NW13G18   29.92R
$$
  *****  WEATHER ACROSS CENTRAL AND WEST MINNESOTA  *****

CITY           SKY/WX    TMP DP  RH WIND       PRES   REMARKS
FOSSTON        MOSUNNY   82  63  51 W9        29.93R
BEMIDJI        PTSUNNY   85  65  51 W16       29.91R
PARK RAPIDS    MOSUNNY   84  70  62 W14       29.92R
ELBOW LAKE     FAIR      82  70  65 N5        29.93S
WADENA         SUNNY     82  70  65 NW6       29.93S
DETROIT LAKES  MOSUNNY   82  68  61 NW10      29.95S
MOORHEAD       SUNNY     84  72  65 N9        29.92S
FERGUS FALLS   MOSUNNY   84  66  54 N6        29.91S
MORRIS MN      SUNNY     88  72  58 CALM      29.92S HX  94
STAPLES        MOSUNNY   82  68  61 SW5       29.93S
$$
  *****  WEATHER ELSEWHERE ACROSS MINNESOTA  *****

CITY           SKY/WX    TMP DP  RH WIND       PRES   REMARKS
DULUTH         CLOUDY    71  65  81 SW12      29.94R
INTRNTL FALLS  MOSUNNY   80  71  74 NW5       29.84R
ELY            CLOUDY    68  66  94 SW9       29.91S FOG
CLOQUET        CLOUDY    72  66  83 SW7       29.95R
WHEATON        SUNNY     84  68  58 N8        29.94R
BRAINERD       PTSUNNY   82  70  66 S9        29.94S
HIBBING        LGT RAIN  71  67  87 VRB5      29.92R FOG
ALEXANDRIA     PTSUNNY   81  71  71 W6        29.96S
SAINT CLOUD    CLOUDY    77  68  73 SW12      29.95S
MINNEAPOLIS    PTSUNNY   79  66  64 SW10G20   29.96S
$$

  *****  WEATHER ACROSS SOUTH DAKOTA  *****

CITY           SKY/WX    TMP DP  RH WIND       PRES   REMARKS
SIOUX FALLS    CLOUDY    83  71  67 VRB6      29.96S
BROOKINGS      NOT AVBL
WATERTOWN      PTSUNNY   88  67  49 VRB3      29.95R HX  91
HURON          SUNNY     93  63  36 N12       29.92S HX  94
SISSETON         N/A     88  66  48 N6        29.92R HX  90
ABERDEEN       MOSUNNY   86  69  56 NE12      29.95R HX  90
MITCHELL       MOSUNNY   88  73  61 CALM      29.93S HX  95
PIERRE         MOSUNNY   91  69  48 MISG      29.95S HX  96
MOBRIDGE       SUNNY     86  68  54 N14       29.98R
RAPID CITY     MOSUNNY   84  67  56 N16       30.05S
$$

  *****  SOME WEATHER IN NEARBY STATES *****

CITY           SKY/WX    TMP DP  RH WIND       PRES   REMARKS
GLASGOW MT     PTSUNNY   76  53  44 NW14G28   30.12S
GREAT FALLS MT PTSUNNY   69  50  50 VRB3      30.17F
CHEYENNE WY    TSTM      69  59  70 W9        30.22R
SCOTTSBLUFF NE MOSUNNY   88  58  36 E8        30.05F
OMAHA NE       CLOUDY    79  70  74 SE10      29.97S
DES MOINES IA  CLOUDY    75  69  81 S9G20     29.98F
DAVENPORT IA   PTSUNNY   79  64  60 S16G26    30.08F
CHICAGO IL     CLOUDY    79  50  36 S9        30.14F
EAU CLAIRE WI  PTSUNNY   75  63  66 S10       30.02R
LA CROSSE WI   CLOUDY    73  61  65 S13       30.03R
$$

  *****  SOME NATIONAL WEATHER *****

CITY           SKY/WX    TMP DP  RH WIND       PRES   REMARKS
LA GUARDIA NY  PTSUNNY   83  56  39 NE10      30.17S
RALEIGH NC     PTSUNNY   83  65  54 E3        30.17F
ATLANTA GA     PTSUNNY   80  72  76 S8        30.13F
NEW ORLEANS LA MOSUNNY   92  69  47 VRB3      30.10F HX  97
OKLAHOMA CITY  MOSUNNY   91  65  41 S15G25    30.07F HX  93
ALBUQUERQUE NM MOSUNNY   90  47  22 NW6       30.13F
SALT LAKE CITY CLOUDY    78  56  46 NE5       30.10F
LOS ANGELES CA MOSUNNY   73  59  61 W10       30.01F
BOISE ID       SUNNY     93  50  23 W7        29.92F HX  90
SEATTLE WA     MOSUNNY   82  53  36 NW8       29.98S
$$

*** WEATHER ACROSS MANITOBA...SASKATCHEWAN AND ONTARIO ***
                ***ONTARIO***

CITY           SKY/WX    TMP DP  RH WIND       PRES   REMARKS
GERALDTON      LGT RAIN  63  61  94 S15       29.91R FOG
THUNDER BAY    CLOUDY    66  61  82 SW12G18   29.90S
SIOUX LOOKOUT  MOSUNNY   72  66  83 W6        29.79S
TORONTO        MOSUNNY   75  50  41 S12       30.21F
BIG TROUT LK   CLOUDY    63  59  88 S13       29.58F
PICKLE LAKE    PTSUNNY   70  63  78 SW10G20   29.73F
DRYDEN         SUNNY     79  57  47 W12G17    29.80S
KENORA         PTSUNNY   81  50  34 W14G25    29.83S
$$
                *** MANITOBA***

CITY           SKY/WX    TMP DP  RH WIND       PRES   REMARKS
BRANDON        MOSUNNY   73  54  49 W23       29.96R
DAUPHIN        PTSUNNY   72  54  53 W21G28    29.90S
ISLAND LAKE    LGT RAIN N/A N/A N/A W18G25      N/A
PILOT MOUND      N/A     72  52  49 W16G25      N/A
THE PAS        PTSUNNY   66  45  45 NW35      29.81
THOMPSON       LGT RAIN  59  55  88 NW25G36   29.55R
WINNIPEG       MOSUNNY   79  54  41 NW18      29.87R
LYNN LAKE      LGT RAIN  55  48  76 NW21G33   29.68R
CHURCHILL      PTSUNNY   72  54  53 VRB5      29.36F
GILLAM         PTSUNNY   72  59  64 SW13      29.43
$$
                ***SASKATCHEWAN***

CITY           SKY/WX    TMP DP  RH WIND       PRES   REMARKS
ESTEVAN        MOSUNNY   72  55  56 NW15G23   30.08R
KINDERSLEY     MOSUNNY   70  48  46 NW8       30.13S
LLOYDMINSTER   MOSUNNY   70  52  52 W13G21    30.09S
PRINCE ALBERT  MOSUNNY   70  50  49 W20G26    29.99R
REGINA         MOSUNNY   72  52  49 NW18G32   30.07S
YORKTON        MOSUNNY   68  50  52 NW21G32   29.98S
N. BATTLEFORD  MOSUNNY   70  48  46 NW16G24   30.09S
LA RONGE       PTSUNNY   68  46  45 W17G28    29.90R
SASKATOON      MOSUNNY   70  50  49 NW15G24   30.07R
SWIFT CURRENT  MOSUNNY   64  52  63 NW14      30.14S
$$
NOTE: THESE ARE AUTOMATED STATIONS WITH LIMITED QUALITY CONTROL
      "FAIR" INDICATES FEW OR NO CLOUDS BELOW 12,000 FEET WITH NO
      SIGNIFICANT WEATHER AND/OR OBSTRUCTIONS TO VISIBILITY.
      SKY/WX - SKY CONDITION AND SIGNIFICANT WEATHER.
      TMP - AIR TEMPERATURE.    DP   - DEWPOINT TEMPERATURE.
      RH  - RELATIVE HUMIDITY.  PRES - PRESSURE.
      HX  - HEAT INDEX.         WCI  - WIND CHILL INDEX.
$



USA.gov is the U.S. government's official web portal to all federal, state and local government web resources and services.